TIROS N [P] 1 11060U 78096A 10071.14554140 .00000005 00000-0 25137-4 0 4285 2 11060 98.9668 48.4911 0010657 337.4362 22.6344 14.17497751836914 NOAA 1 [-] 1 04793U 70106A 10070.52072591 -.00000031 00000-0 10000-3 0 4451 2 04793 102.0938 71.1641 0031898 288.5883 71.1725 12.53936585796427 NOAA 2 [-] 1 06235U 72082A 10070.06982118 -.00000027 00000-0 10000-3 0 5448 2 06235 101.3939 82.2297 0003993 122.5794 237.5663 12.53006909710890 NOAA 3 [-] 1 06920U 73086A 10070.48205126 -.00000030 00000-0 10000-3 0 4361 2 06920 101.7065 87.8492 0006367 30.3343 329.8094 12.40304003645417 NOAA 4 [-] 1 07529U 74089A 10070.47176977 -.00000027 00000-0 10000-3 0 4479 2 07529 101.4220 90.2008 0009207 153.8260 206.3281 12.53055994615521 NOAA 5 [-] 1 09057U 76077A 10070.16424798 -.00000031 00000-0 10000-3 0 3248 2 09057 101.8754 110.2675 0009508 211.4835 148.5650 12.37818990519515 NOAA 6 [P] 1 11416U 79057A 10070.46172771 .00000055 00000-0 36267-4 0 1871 2 11416 98.4040 82.1074 0010157 185.5726 174.5359 14.31963771599964 NOAA 7 [-] 1 12553U 81059A 10070.38532145 .00000011 00000-0 26948-4 0 2963 2 12553 98.6923 22.3607 0010659 272.2319 87.7635 14.16779597483368 NOAA 8 [-] 1 13923U 83022A 10070.50476048 .00000010 00000-0 21305-4 0 1971 2 13923 98.5346 99.6471 0016335 47.4834 312.7728 14.27728551402995 NOAA 9 [P] 1 15427U 84123A 10070.09091861 .00000273 00000-0 16131-3 0 515 2 15427 98.4635 58.9595 0015069 13.7783 346.3836 14.15344844302711 NOAA 10 [-] 1 16969U 86073A 10070.50848115 .00000029 00000-0 29729-4 0 9865 2 16969 98.6688 100.3504 0013123 134.4479 225.7781 14.27409024221643 NOAA 11 [-] 1 19531U 88089A 10070.15889838 .00000166 00000-0 10810-3 0 10 2 19531 98.7684 160.8533 0012389 67.7792 292.4702 14.14917633107272 NOAA 12 [B] 1 21263U 91032A 10070.37408694 .00000034 00000-0 33277-4 0 4862 2 21263 98.7700 83.5308 0013343 90.5086 269.7625 14.25620533978468 NOAA 13 [-] 1 22739U 93050A 10070.30163582 -.00000005 00000-0 21390-4 0 341 2 22739 98.8430 152.3105 0009591 160.0741 200.0791 14.12234036854661 NOAA 14 [-] 1 23455U 94089A 10070.40647839 -.00000034 00000-0 55175-5 0 9781 2 23455 98.8823 151.8146 0009722 148.6658 211.5097 14.13780133783681 NOAA 15 [+] 1 25338U 98030A 10070.19135785 .00000102 00000-0 62352-4 0 2974 2 25338 98.6126 58.9095 0010700 5.8737 354.2547 14.24811443614798 NOAA 16 [+] 1 26536U 00055A 10070.26464716 -.00000309 00000-0 -14176-3 0 7754 2 26536 99.1771 85.4027 0009731 250.3111 109.7014 14.12547260488001 NOAA 17 [+] 1 27453U 02032A 10070.33862255 .00000088 00000-0 56147-4 0 7801 2 27453 98.4446 124.6684 0012671 65.6750 294.5780 14.24137896400773 NOAA 18 [+] 1 28654U 05018A 10070.25459098 .00000404 00000-0 24796-3 0 2654 2 28654 98.9400 16.8483 0013973 332.9389 27.1062 14.11336881247622 NOAA 19 [S] 1 33591U 09005A 10070.29222714 -.00000150 00000-0 -59565-4 0 4652 2 33591 98.7797 14.5377 0013688 203.4223 156.6337 14.11031698 56106